Time,TemperatureF,DewpointF,PressureIn,WindDirection,WindDirectionDegrees,WindSpeedMPH,WindSpeedGustMPH,Humidity,HourlyPrecipIn,Conditions,Clouds,dailyrainin,SoftwareType,DateUTC
2013-04-12 00:00:00,23.5,17.1,29.88,SE,135,0.0,0.0,76,0.00,,,0.01,meteohub,2013-04-12 06:00:00,
2013-04-12 00:05:00,23.5,17.1,29.88,SE,135,0.0,0.0,76,0.00,,,0.01,meteohub,2013-04-12 06:05:00,
2013-04-12 00:10:00,23.5,17.1,29.88,SW,225,0.0,0.0,76,0.00,,,0.00,meteohub,2013-04-12 06:10:00,
2013-04-12 00:15:00,23.5,17.1,29.88,SE,135,0.0,1.0,76,0.00,,,0.00,meteohub,2013-04-12 06:15:00,
2013-04-12 00:20:00,23.4,16.9,29.88,SE,135,0.0,2.0,76,0.00,,,0.00,meteohub,2013-04-12 06:20:00,
2013-04-12 00:25:00,23.4,16.9,29.88,SE,135,0.0,2.0,76,0.00,,,0.00,meteohub,2013-04-12 06:25:00,
2013-04-12 00:30:00,23.4,16.9,29.88,West,270,1.0,2.0,76,0.00,,,0.00,meteohub,2013-04-12 06:30:00,
2013-04-12 00:36:00,23.4,16.9,29.88,SE,135,0.0,2.0,76,0.00,,,0.00,meteohub,2013-04-12 06:36:00,
2013-04-12 00:42:00,23.4,16.9,29.88,NW,315,1.0,2.0,76,0.00,,,0.00,meteohub,2013-04-12 06:42:00,
2013-04-12 00:47:00,23.4,16.9,29.89,West,270,1.0,1.0,76,0.00,,,0.00,meteohub,2013-04-12 06:47:00,
2013-04-12 00:52:00,23.4,16.7,29.89,SW,225,0.0,2.0,75,0.00,,,0.00,meteohub,2013-04-12 06:52:00,
2013-04-12 00:57:00,23.4,16.7,29.89,SW,225,0.0,2.0,75,0.00,,,0.00,meteohub,2013-04-12 06:57:00,
2013-04-12 01:02:00,23.4,16.7,29.88,SE,135,0.0,2.0,75,0.00,,,0.00,meteohub,2013-04-12 07:02:00,
2013-04-12 01:07:00,23.4,16.7,29.88,East,90,1.0,2.0,75,0.00,,,0.00,meteohub,2013-04-12 07:07:00,
2013-04-12 01:12:00,23.4,16.7,29.88,SE,135,0.0,2.0,75,0.00,,,0.00,meteohub,2013-04-12 07:12:00,
2013-04-12 01:18:00,23.4,16.7,29.88,South,180,0.0,2.0,75,0.00,,,0.00,meteohub,2013-04-12 07:18:00,
2013-04-12 01:23:00,23.4,16.7,29.89,SE,135,0.0,3.0,75,0.00,,,0.00,meteohub,2013-04-12 07:23:00,
2013-04-12 01:28:00,23.4,16.7,29.89,West,270,0.0,3.0,75,0.00,,,0.00,meteohub,2013-04-12 07:28:00,
2013-04-12 01:33:00,23.4,16.7,29.88,SE,135,0.0,3.0,75,0.00,,,0.00,meteohub,2013-04-12 07:33:00,
2013-04-12 01:38:00,23.4,16.7,29.88,SE,135,0.0,1.0,75,0.00,,,0.00,meteohub,2013-04-12 07:38:00,
2013-04-12 01:44:00,23.4,16.7,29.88,West,270,1.0,1.0,75,0.00,,,0.00,meteohub,2013-04-12 07:44:00,
2013-04-12 01:49:00,23.2,16.5,29.88,SE,135,0.0,2.0,75,0.00,,,0.00,meteohub,2013-04-12 07:49:00,
2013-04-12 01:54:00,23.2,16.5,29.88,SE,135,0.0,2.0,75,0.00,,,0.00,meteohub,2013-04-12 07:54:00,
2013-04-12 01:59:00,23.2,16.5,29.88,SE,135,1.0,2.0,75,0.00,,,0.00,meteohub,2013-04-12 07:59:00,
2013-04-12 02:05:00,23.0,16.3,29.88,SE,135,2.0,2.0,75,0.00,,,0.00,meteohub,2013-04-12 08:05:00,
2013-04-12 02:10:00,22.8,16.3,29.88,NW,315,0.0,2.0,76,0.00,,,0.00,meteohub,2013-04-12 08:10:00,
2013-04-12 02:15:00,22.6,16.2,29.88,SE,135,1.0,2.0,76,0.00,,,0.00,meteohub,2013-04-12 08:15:00,
2013-04-12 02:20:00,22.5,15.8,29.88,SE,135,0.0,2.0,75,0.00,,,0.00,meteohub,2013-04-12 08:20:00,
2013-04-12 02:25:00,22.5,15.8,29.87,East,90,0.0,2.0,75,0.00,,,0.00,meteohub,2013-04-12 08:25:00,
2013-04-12 02:30:00,22.3,15.6,29.87,SE,135,0.0,1.0,75,0.00,,,0.00,meteohub,2013-04-12 08:30:00,
2013-04-12 02:35:00,22.1,15.4,29.86,SE,135,2.0,2.0,75,0.00,,,0.00,meteohub,2013-04-12 08:35:00,
2013-04-12 02:41:00,21.9,15.3,29.87,NW,315,2.0,2.0,75,0.00,,,0.00,meteohub,2013-04-12 08:41:00,
2013-04-12 02:47:00,21.7,15.1,29.87,SE,135,0.0,2.0,75,0.00,,,0.00,meteohub,2013-04-12 08:47:00,
2013-04-12 02:52:00,21.6,14.9,29.87,East,90,2.0,2.0,75,0.00,,,0.00,meteohub,2013-04-12 08:52:00,
2013-04-12 02:57:00,21.4,14.7,29.86,West,270,0.0,2.0,75,0.00,,,0.00,meteohub,2013-04-12 08:57:00,
2013-04-12 03:02:00,21.4,14.7,29.86,SE,135,2.0,2.0,75,0.00,,,0.00,meteohub,2013-04-12 09:02:00,
2013-04-12 03:07:00,21.2,14.5,29.86,SE,135,0.0,2.0,75,0.00,,,0.00,meteohub,2013-04-12 09:07:00,
2013-04-12 03:12:00,21.2,14.5,29.86,SE,135,0.0,2.0,75,0.00,,,0.00,meteohub,2013-04-12 09:12:00,
2013-04-12 03:17:00,21.0,14.7,29.86,SE,135,2.0,2.0,76,0.00,,,0.00,meteohub,2013-04-12 09:17:00,
2013-04-12 03:23:00,21.0,14.7,29.86,SE,135,1.0,2.0,76,0.00,,,0.00,meteohub,2013-04-12 09:23:00,
2013-04-12 03:28:00,20.8,14.5,29.86,SE,135,2.0,3.0,76,0.00,,,0.00,meteohub,2013-04-12 09:28:00,
2013-04-12 03:33:00,20.7,14.4,29.86,SE,135,0.0,3.0,76,0.00,,,0.00,meteohub,2013-04-12 09:33:00,
2013-04-12 03:38:00,20.5,14.2,29.86,SE,135,0.0,2.0,76,0.00,,,0.00,meteohub,2013-04-12 09:38:00,
2013-04-12 03:43:00,20.3,14.0,29.86,SE,135,2.0,2.0,76,0.00,,,0.00,meteohub,2013-04-12 09:43:00,
2013-04-12 03:49:00,20.3,13.6,29.86,West,270,0.0,1.0,75,0.00,,,0.00,meteohub,2013-04-12 09:49:00,
2013-04-12 03:54:00,20.1,13.5,29.86,SE,135,0.0,2.0,75,0.00,,,0.00,meteohub,2013-04-12 09:54:00,
2013-04-12 03:59:00,20.1,13.5,29.86,SE,135,0.0,2.0,75,0.00,,,0.00,meteohub,2013-04-12 09:59:00,
2013-04-12 04:04:00,20.1,13.5,29.86,SE,135,0.0,2.0,75,0.00,,,0.00,meteohub,2013-04-12 10:04:00,
2013-04-12 04:10:00,20.1,13.8,29.85,SE,135,0.0,2.0,76,0.00,,,0.00,meteohub,2013-04-12 10:10:00,
2013-04-12 04:15:00,20.1,13.8,29.85,SE,135,0.0,2.0,76,0.00,,,0.00,meteohub,2013-04-12 10:15:00,
2013-04-12 04:20:00,20.1,13.8,29.85,SE,135,0.0,2.0,76,0.00,,,0.00,meteohub,2013-04-12 10:20:00,
2013-04-12 04:25:00,20.1,13.8,29.85,WNW,293,1.0,2.0,76,0.00,,,0.00,meteohub,2013-04-12 10:25:00,
2013-04-12 04:30:00,19.9,13.6,29.85,SE,135,0.0,1.0,76,0.00,,,0.00,meteohub,2013-04-12 10:30:00,
2013-04-12 04:35:00,19.9,13.6,29.85,SE,135,0.0,1.0,76,0.00,,,0.00,meteohub,2013-04-12 10:35:00,
2013-04-12 04:41:00,19.8,13.5,29.85,SE,135,0.0,2.0,76,0.00,,,0.00,meteohub,2013-04-12 10:41:00,
2013-04-12 04:46:00,19.8,13.5,29.85,SE,135,0.0,2.0,76,0.00,,,0.00,meteohub,2013-04-12 10:46:00,
2013-04-12 04:51:00,19.8,13.5,29.85,SE,135,0.0,2.0,76,0.00,,,0.00,meteohub,2013-04-12 10:51:00,
2013-04-12 04:56:00,19.6,13.3,29.85,SE,135,0.0,0.0,76,0.00,,,0.00,meteohub,2013-04-12 10:56:00,
2013-04-12 05:02:00,19.6,12.9,29.85,SE,135,0.0,0.0,75,0.00,,,0.00,meteohub,2013-04-12 11:02:00,
2013-04-12 05:07:00,19.4,12.7,29.85,SE,135,0.0,0.0,75,0.00,,,0.00,meteohub,2013-04-12 11:07:00,
2013-04-12 05:12:00,19.4,12.7,29.85,SE,135,0.0,0.0,75,0.00,,,0.00,meteohub,2013-04-12 11:12:00,
2013-04-12 05:17:00,19.2,11.3,29.85,NW,315,1.0,1.0,71,0.00,,,0.00,meteohub,2013-04-12 11:17:00,
2013-04-12 05:23:00,19.4,12.7,29.85,SE,135,0.0,1.0,75,0.00,,,0.00,meteohub,2013-04-12 11:23:00,
2013-04-12 05:28:00,19.4,13.1,29.85,NW,315,0.0,1.0,76,0.00,,,0.00,meteohub,2013-04-12 11:28:00,
2013-04-12 05:33:00,19.2,11.3,29.85,SE,135,1.0,2.0,71,0.00,,,0.00,meteohub,2013-04-12 11:33:00,
2013-04-12 05:38:00,19.0,11.1,29.85,South,180,0.0,4.0,71,0.00,,,0.00,meteohub,2013-04-12 11:38:00,
2013-04-12 05:44:00,19.0,11.1,29.85,SE,135,2.0,4.0,71,0.00,,,0.00,meteohub,2013-04-12 11:44:00,
2013-04-12 05:49:00,19.0,11.1,29.85,SE,135,0.0,4.0,71,0.00,,,0.00,meteohub,2013-04-12 11:49:00,
2013-04-12 05:54:00,19.0,11.5,29.85,SE,135,1.0,3.0,72,0.00,,,0.00,meteohub,2013-04-12 11:54:00,
2013-04-12 05:59:00,19.2,11.7,29.84,SE,135,1.0,3.0,72,0.00,,,0.00,meteohub,2013-04-12 11:59:00,
2013-04-12 06:04:00,19.2,11.7,29.85,SE,135,1.0,2.0,72,0.00,,,0.00,meteohub,2013-04-12 12:04:00,
2013-04-12 06:09:00,19.4,13.1,29.85,NE,45,2.0,2.0,76,0.00,,,0.00,meteohub,2013-04-12 12:09:00,
2013-04-12 06:15:00,19.6,13.3,29.85,NE,45,2.0,2.0,76,0.00,,,0.00,meteohub,2013-04-12 12:15:00,
2013-04-12 06:20:00,19.8,13.6,29.85,NW,315,3.0,3.0,77,0.00,,,0.00,meteohub,2013-04-12 12:20:00,
2013-04-12 06:25:00,20.1,14.0,29.85,NW,315,1.0,4.0,77,0.00,,,0.00,meteohub,2013-04-12 12:25:00,
2013-04-12 06:30:00,20.5,14.7,29.85,WNW,293,2.0,6.0,78,0.00,,,0.00,meteohub,2013-04-12 12:30:00,
2013-04-12 06:35:00,20.7,14.9,29.84,West,270,3.0,6.0,78,0.00,,,0.00,meteohub,2013-04-12 12:35:00,
2013-04-12 06:41:00,20.8,15.1,29.85,SW,225,1.0,6.0,78,0.00,,,0.00,meteohub,2013-04-12 12:41:00,
2013-04-12 06:46:00,21.0,15.6,29.85,West,270,2.0,5.0,79,0.00,,,0.00,meteohub,2013-04-12 12:46:00,
2013-04-12 06:52:00,21.2,15.4,29.85,NW,315,3.0,4.0,78,0.00,,,0.00,meteohub,2013-04-12 12:52:00,
2013-04-12 06:57:00,21.2,15.4,29.85,South,180,2.0,4.0,78,0.00,,,0.00,meteohub,2013-04-12 12:57:00,
2013-04-12 07:02:00,21.2,15.4,29.85,NW,315,2.0,4.0,78,0.00,,,0.00,meteohub,2013-04-12 13:02:00,
2013-04-12 07:07:00,21.4,15.6,29.86,SW,225,2.0,4.0,78,0.00,,,0.00,meteohub,2013-04-12 13:07:00,
2013-04-12 07:12:00,21.4,15.6,29.86,SW,225,2.0,4.0,78,0.00,,,0.00,meteohub,2013-04-12 13:12:00,
2013-04-12 07:17:00,21.4,15.6,29.86,West,270,3.0,4.0,78,0.00,,,0.00,meteohub,2013-04-12 13:17:00,
2013-04-12 07:23:00,21.6,15.8,29.85,SE,135,0.0,4.0,78,0.00,,,0.00,meteohub,2013-04-12 13:23:00,
2013-04-12 07:28:00,21.6,15.8,29.86,South,180,1.0,4.0,78,0.00,,,0.00,meteohub,2013-04-12 13:28:00,
2013-04-12 07:33:00,21.6,15.8,29.86,SE,135,2.0,4.0,78,0.00,,,0.00,meteohub,2013-04-12 13:33:00,
2013-04-12 07:38:00,21.6,15.8,29.86,West,270,2.0,2.0,78,0.00,,,0.00,meteohub,2013-04-12 13:38:00,
2013-04-12 07:43:00,21.6,15.8,29.86,SSE,158,2.0,4.0,78,0.00,,,0.00,meteohub,2013-04-12 13:43:00,
2013-04-12 07:49:00,21.6,15.8,29.86,SE,135,6.0,6.0,78,0.00,,,0.00,meteohub,2013-04-12 13:49:00,
2013-04-12 07:54:00,21.4,15.3,29.86,NW,315,2.0,4.0,77,0.00,,,0.00,meteohub,2013-04-12 13:54:00,
2013-04-12 07:59:00,21.4,15.3,29.86,East,90,1.0,8.0,77,0.00,,,0.00,meteohub,2013-04-12 13:59:00,
2013-04-12 08:04:00,21.4,15.3,29.86,East,90,0.0,8.0,77,0.00,,,0.00,meteohub,2013-04-12 14:04:00,
2013-04-12 08:09:00,21.4,15.1,29.86,ESE,113,1.0,3.0,76,0.00,,,0.00,meteohub,2013-04-12 14:09:00,
2013-04-12 08:14:00,21.2,14.9,29.86,West,270,4.0,4.0,76,0.00,,,0.00,meteohub,2013-04-12 14:14:00,
2013-04-12 08:20:00,21.2,14.9,29.86,South,180,3.0,5.0,76,0.00,,,0.00,meteohub,2013-04-12 14:20:00,
2013-04-12 08:25:00,21.6,15.3,29.86,NW,315,4.0,7.0,76,0.00,,,0.00,meteohub,2013-04-12 14:25:00,
2013-04-12 08:30:00,21.9,15.8,29.86,ESE,113,2.0,7.0,77,0.00,,,0.00,meteohub,2013-04-12 14:30:00,
2013-04-12 08:36:00,22.1,16.0,29.86,WNW,293,2.0,7.0,77,0.00,,,0.00,meteohub,2013-04-12 14:36:00,
2013-04-12 08:41:00,22.3,15.8,29.87,NE,45,2.0,4.0,76,0.00,,,0.00,meteohub,2013-04-12 14:41:00,
2013-04-12 08:46:00,22.8,16.7,29.87,North,0,1.0,4.0,77,0.00,,,0.00,meteohub,2013-04-12 14:46:00,
2013-04-12 08:51:00,23.4,16.9,29.86,NW,315,2.0,3.0,76,0.00,,,0.00,meteohub,2013-04-12 14:51:00,
2013-04-12 08:57:00,24.1,17.6,29.86,NW,315,7.0,7.0,76,0.00,,,0.00,meteohub,2013-04-12 14:57:00,
2013-04-12 09:02:00,24.4,17.6,29.86,South,180,1.0,7.0,75,0.00,,,0.00,meteohub,2013-04-12 15:02:00,
2013-04-12 09:07:00,25.2,18.0,29.86,West,270,8.0,8.0,74,0.00,,,0.00,meteohub,2013-04-12 15:07:00,
2013-04-12 09:12:00,25.7,18.5,29.86,West,270,5.0,8.0,74,0.00,,,0.00,meteohub,2013-04-12 15:12:00,
2013-04-12 09:17:00,25.9,18.5,29.86,West,270,3.0,8.0,73,0.00,,,0.00,meteohub,2013-04-12 15:17:00,
2013-04-12 09:23:00,26.2,18.5,29.87,West,270,3.0,8.0,72,0.00,,,0.00,meteohub,2013-04-12 15:23:00,
2013-04-12 09:28:00,26.8,18.7,29.87,NW,315,2.0,8.0,71,0.00,,,0.00,meteohub,2013-04-12 15:28:00,
2013-04-12 09:33:00,27.0,18.9,29.87,NNW,338,3.0,6.0,71,0.00,,,0.00,meteohub,2013-04-12 15:33:00,
2013-04-12 09:38:00,27.1,18.7,29.87,West,270,4.0,11.0,70,0.00,,,0.00,meteohub,2013-04-12 15:38:00,
2013-04-12 09:43:00,27.3,18.9,29.88,North,0,3.0,11.0,70,0.00,,,0.00,meteohub,2013-04-12 15:43:00,
2013-04-12 09:48:00,27.5,19.0,29.87,SW,225,12.0,12.0,70,0.00,,,0.00,meteohub,2013-04-12 15:48:00,
2013-04-12 09:54:00,28.4,21.2,29.88,West,270,6.0,12.0,74,0.00,,,0.00,meteohub,2013-04-12 15:54:00,
2013-04-12 09:59:00,29.5,21.9,29.88,West,270,6.0,12.0,73,0.00,,,0.00,meteohub,2013-04-12 15:59:00,
2013-04-12 10:04:00,29.7,22.1,29.88,North,0,5.0,12.0,73,0.00,,,0.00,meteohub,2013-04-12 16:04:00,
2013-04-12 10:10:00,31.3,23.0,29.88,NW,315,8.0,9.0,71,0.00,,,0.00,meteohub,2013-04-12 16:10:00,
2013-04-12 10:15:00,32.5,23.9,29.88,NW,315,8.0,9.0,70,0.00,,,0.00,meteohub,2013-04-12 16:15:00,
2013-04-12 10:20:00,33.6,24.3,29.88,WNW,293,6.0,8.0,68,0.00,,,0.00,meteohub,2013-04-12 16:20:00,
2013-04-12 10:25:00,35.1,24.8,29.88,WSW,248,7.0,8.0,66,0.00,,,0.00,meteohub,2013-04-12 16:25:00,
2013-04-12 10:30:00,36.5,24.8,29.88,West,270,4.0,7.0,62,0.00,,,0.00,meteohub,2013-04-12 16:30:00,
2013-04-12 10:36:00,37.2,24.6,29.88,NE,45,2.0,8.0,60,0.00,,,0.00,meteohub,2013-04-12 16:36:00,
2013-04-12 10:41:00,37.0,24.1,29.88,SW,225,7.0,8.0,59,0.00,,,0.00,meteohub,2013-04-12 16:41:00,
2013-04-12 10:46:00,36.0,22.6,29.88,South,180,9.0,9.0,58,0.00,,,0.00,meteohub,2013-04-12 16:46:00,
2013-04-12 10:51:00,34.2,21.4,29.88,SW,225,5.0,13.0,59,0.00,,,0.00,meteohub,2013-04-12 16:51:00,
2013-04-12 10:57:00,34.5,22.1,29.89,SE,135,4.0,13.0,60,0.00,,,0.00,meteohub,2013-04-12 16:57:00,
2013-04-12 11:02:00,36.7,24.1,29.88,NW,315,7.0,9.0,60,0.00,,,0.00,meteohub,2013-04-12 17:02:00,
2013-04-12 11:07:00,37.6,26.1,29.89,ESE,113,2.0,8.0,63,0.00,,,0.00,meteohub,2013-04-12 17:07:00,
2013-04-12 11:12:00,38.7,26.8,29.89,SE,135,4.0,11.0,62,0.00,,,0.00,meteohub,2013-04-12 17:12:00,
2013-04-12 11:17:00,38.7,26.1,29.89,SE,135,7.0,11.0,60,0.00,,,0.00,meteohub,2013-04-12 17:17:00,
2013-04-12 11:22:00,38.5,24.1,29.89,SE,135,2.0,11.0,56,0.01,,,0.01,meteohub,2013-04-12 17:22:00,
2013-04-12 11:27:00,39.9,25.0,29.89,North,0,5.0,9.0,55,0.02,,,0.02,meteohub,2013-04-12 17:27:00,
2013-04-12 11:32:00,39.6,23.0,29.90,West,270,2.0,8.0,51,0.05,,,0.05,meteohub,2013-04-12 17:32:00,
2013-04-12 11:38:00,40.5,21.7,29.89,East,90,3.0,8.0,47,0.05,,,0.05,meteohub,2013-04-12 17:38:00,
2013-04-12 11:44:00,40.3,21.7,29.90,West,270,4.0,10.0,47,0.07,,,0.07,meteohub,2013-04-12 17:44:00,
2013-04-12 11:49:00,39.2,19.6,29.90,West,270,7.0,10.0,45,0.07,,,0.07,meteohub,2013-04-12 17:49:00,
2013-04-12 11:54:00,38.8,20.3,29.91,WSW,248,8.0,8.0,47,0.07,,,0.07,meteohub,2013-04-12 17:54:00,
2013-04-12 12:00:00,37.9,18.0,29.91,North,0,8.0,12.0,44,0.07,,,0.07,meteohub,2013-04-12 18:00:00,
2013-04-12 12:06:00,37.8,17.8,29.91,ESE,113,2.0,13.0,44,0.07,,,0.07,meteohub,2013-04-12 18:06:00,
2013-04-12 12:12:00,36.5,14.5,29.92,NW,315,10.0,15.0,40,0.07,,,0.07,meteohub,2013-04-12 18:12:00,
2013-04-12 12:17:00,35.1,14.9,29.92,SW,225,5.0,15.0,43,0.07,,,0.07,meteohub,2013-04-12 18:17:00,
2013-04-12 12:22:00,36.9,18.0,29.91,NE,45,8.0,15.0,46,0.05,,,0.07,meteohub,2013-04-12 18:22:00,
2013-04-12 12:27:00,39.9,21.4,29.91,NE,45,8.0,14.0,47,0.05,,,0.07,meteohub,2013-04-12 18:27:00,
2013-04-12 13:26:00,42.1,24.3,29.92,ESE,113,2.0,11.0,49,0.01,,,0.08,meteohub,2013-04-12 19:26:00,
2013-04-12 13:27:00,42.4,24.1,29.91,South,180,2.0,11.0,48,0.01,,,0.08,meteohub,2013-04-12 19:27:00,
2013-04-12 13:32:00,44.1,23.5,29.93,North,0,4.0,11.0,44,0.01,,,0.08,meteohub,2013-04-12 19:32:00,
2013-04-12 13:38:00,43.9,21.7,29.92,SE,135,9.0,15.0,41,0.01,,,0.08,meteohub,2013-04-12 19:38:00,
2013-04-12 13:43:00,46.2,22.6,29.91,SW,225,6.0,15.0,39,0.01,,,0.08,meteohub,2013-04-12 19:43:00,
2013-04-12 13:48:00,47.5,21.2,29.91,West,270,2.0,15.0,35,0.01,,,0.08,meteohub,2013-04-12 19:48:00,
2013-04-12 13:53:00,49.5,21.6,29.92,North,0,4.0,9.0,33,0.01,,,0.08,meteohub,2013-04-12 19:53:00,
2013-04-12 13:59:00,49.6,18.7,29.92,WNW,293,4.0,9.0,29,0.01,,,0.08,meteohub,2013-04-12 19:59:00,
2013-04-12 14:04:00,49.8,18.9,29.92,SE,135,7.0,8.0,29,0.01,,,0.08,meteohub,2013-04-12 20:04:00,
2013-04-12 14:09:00,45.0,11.3,29.92,NW,315,3.0,8.0,25,0.01,,,0.08,meteohub,2013-04-12 20:09:00,
2013-04-12 14:14:00,43.0,14.4,29.92,NW,315,4.0,8.0,31,0.00,,,0.08,meteohub,2013-04-12 20:14:00,
2013-04-12 14:20:00,41.9,15.6,29.93,West,270,9.0,9.0,34,0.00,,,0.08,meteohub,2013-04-12 20:20:00,
2013-04-12 14:25:00,40.8,17.8,29.93,NW,315,2.0,8.0,39,0.00,,,0.08,meteohub,2013-04-12 20:25:00,
2013-04-12 14:30:00,43.3,19.4,29.92,South,180,5.0,9.0,38,0.00,,,0.08,meteohub,2013-04-12 20:30:00,
2013-04-12 14:35:00,44.2,14.7,29.92,West,270,6.0,9.0,30,0.00,,,0.08,meteohub,2013-04-12 20:35:00,
2013-04-12 14:41:00,42.6,14.0,29.93,NW,315,6.0,8.0,31,0.00,,,0.08,meteohub,2013-04-12 20:41:00,
2013-04-12 14:46:00,40.5,13.6,29.93,North,0,9.0,9.0,33,0.00,,,0.08,meteohub,2013-04-12 20:46:00,
2013-04-12 14:52:00,38.8,16.5,29.94,North,0,4.0,9.0,40,0.00,,,0.08,meteohub,2013-04-12 20:52:00,
2013-04-12 14:57:00,38.3,18.3,29.93,NW,315,5.0,9.0,44,0.00,,,0.08,meteohub,2013-04-12 20:57:00,
2013-04-12 15:02:00,39.0,18.9,29.93,NW,315,4.0,9.0,44,0.00,,,0.08,meteohub,2013-04-12 21:02:00,
2013-04-12 15:07:00,38.8,18.9,29.93,NW,315,5.0,9.0,44,0.00,,,0.08,meteohub,2013-04-12 21:07:00,
2013-04-12 15:12:00,38.5,18.5,29.94,SW,225,4.0,9.0,44,0.00,,,0.08,meteohub,2013-04-12 21:12:00,
2013-04-12 15:17:00,36.9,13.6,29.94,WNW,293,8.0,9.0,38,0.00,,,0.08,meteohub,2013-04-12 21:17:00,
2013-04-12 15:22:00,36.5,13.8,29.94,North,0,5.0,11.0,39,0.00,,,0.08,meteohub,2013-04-12 21:22:00,
2013-04-12 15:28:00,36.5,15.6,29.93,SE,135,2.0,11.0,42,0.00,,,0.08,meteohub,2013-04-12 21:28:00,
2013-04-12 15:33:00,37.4,19.0,29.93,NW,315,6.0,8.0,47,0.00,,,0.08,meteohub,2013-04-12 21:33:00,
2013-04-12 15:38:00,37.8,17.8,29.93,SE,135,2.0,8.0,44,0.00,,,0.08,meteohub,2013-04-12 21:38:00,
2013-04-12 15:43:00,38.3,18.3,29.93,NE,45,2.0,6.0,44,0.00,,,0.08,meteohub,2013-04-12 21:43:00,
2013-04-12 15:49:00,37.9,18.0,29.93,WNW,293,6.0,7.0,44,0.00,,,0.08,meteohub,2013-04-12 21:49:00,
2013-04-12 15:54:00,36.3,13.6,29.93,South,180,7.0,11.0,39,0.00,,,0.08,meteohub,2013-04-12 21:54:00,
2013-04-12 15:59:00,35.1,13.6,29.94,SW,225,6.0,11.0,41,0.00,,,0.08,meteohub,2013-04-12 21:59:00,
2013-04-12 16:04:00,34.9,13.6,29.94,NW,315,4.0,11.0,41,0.00,,,0.08,meteohub,2013-04-12 22:04:00,
2013-04-12 16:09:00,32.2,14.7,29.94,NW,315,9.0,11.0,48,0.00,,,0.08,meteohub,2013-04-12 22:09:00,
2013-04-12 16:15:00,31.6,15.6,29.94,West,270,2.0,11.0,51,0.00,,,0.08,meteohub,2013-04-12 22:15:00,
2013-04-12 16:20:00,32.4,16.3,29.93,West,270,4.0,9.0,51,0.00,,,0.08,meteohub,2013-04-12 22:20:00,
2013-04-12 16:25:00,33.3,16.7,29.93,NE,45,1.0,7.0,50,0.00,,,0.08,meteohub,2013-04-12 22:25:00,
2013-04-12 16:31:00,33.6,16.9,29.93,WNW,293,4.0,5.0,50,0.00,,,0.08,meteohub,2013-04-12 22:31:00,
2013-04-12 16:36:00,34.0,16.3,29.92,NE,45,3.0,5.0,48,0.00,,,0.08,meteohub,2013-04-12 22:36:00,
2013-04-12 16:41:00,34.9,16.7,29.93,NW,315,7.0,7.0,47,0.00,,,0.08,meteohub,2013-04-12 22:41:00,
2013-04-12 16:47:00,35.4,14.5,29.92,SW,225,3.0,8.0,42,0.00,,,0.08,meteohub,2013-04-12 22:47:00,
2013-04-12 16:52:00,35.4,13.5,29.92,NE,45,1.0,8.0,40,0.00,,,0.08,meteohub,2013-04-12 22:52:00,
2013-04-12 16:57:00,35.8,13.3,29.93,NW,315,8.0,8.0,39,0.00,,,0.08,meteohub,2013-04-12 22:57:00,
2013-04-12 17:02:00,35.4,12.9,29.92,West,270,7.0,8.0,39,0.00,,,0.08,meteohub,2013-04-12 23:02:00,
2013-04-12 17:07:00,35.8,13.3,29.93,West,270,4.0,8.0,39,0.00,,,0.08,meteohub,2013-04-12 23:07:00,
2013-04-12 17:12:00,36.1,13.6,29.92,NW,315,2.0,8.0,39,0.00,,,0.08,meteohub,2013-04-12 23:12:00,
2013-04-12 17:17:00,36.1,12.9,29.92,West,270,3.0,8.0,38,0.00,,,0.08,meteohub,2013-04-12 23:17:00,
2013-04-12 17:22:00,36.1,12.9,29.93,NW,315,3.0,5.0,38,0.00,,,0.08,meteohub,2013-04-12 23:22:00,
2013-04-12 17:28:00,36.1,12.9,29.92,East,90,2.0,7.0,38,0.00,,,0.08,meteohub,2013-04-12 23:28:00,
2013-04-12 17:33:00,35.8,12.7,29.92,South,180,4.0,7.0,38,0.00,,,0.08,meteohub,2013-04-12 23:33:00,
2013-04-12 17:38:00,35.8,12.7,29.93,West,270,4.0,7.0,38,0.00,,,0.08,meteohub,2013-04-12 23:38:00,
2013-04-12 17:43:00,35.8,12.0,29.92,South,180,2.0,6.0,37,0.00,,,0.08,meteohub,2013-04-12 23:43:00,
2013-04-12 17:49:00,35.6,11.3,29.93,North,0,2.0,6.0,36,0.00,,,0.08,meteohub,2013-04-12 23:49:00,
2013-04-12 17:54:00,35.8,10.2,29.93,West,270,6.0,6.0,34,0.00,,,0.08,meteohub,2013-04-12 23:54:00,
2013-04-12 17:59:00,35.8,9.5,29.92,NW,315,2.0,9.0,33,0.00,,,0.08,meteohub,2013-04-12 23:59:00,
2013-04-12 18:05:00,35.8,9.5,29.92,NW,315,4.0,9.0,33,0.00,,,0.08,meteohub,2013-04-13 00:05:00,
2013-04-12 18:10:00,35.6,6.4,29.92,SW,225,3.0,9.0,29,0.00,,,0.08,meteohub,2013-04-13 00:10:00,
2013-04-12 18:15:00,35.1,7.5,29.92,North,0,2.0,4.0,31,0.00,,,0.08,meteohub,2013-04-13 00:15:00,
2013-04-12 18:21:00,34.7,7.2,29.93,NW,315,1.0,5.0,31,0.00,,,0.08,meteohub,2013-04-13 00:21:00,
2013-04-12 18:26:00,34.7,7.2,29.92,West,270,4.0,5.0,31,0.00,,,0.08,meteohub,2013-04-13 00:26:00,
2013-04-12 18:31:00,34.5,7.7,29.93,NW,315,4.0,5.0,32,0.00,,,0.08,meteohub,2013-04-13 00:31:00,
2013-04-12 18:36:00,33.6,8.2,29.93,NW,315,2.0,5.0,34,0.00,,,0.08,meteohub,2013-04-13 00:36:00,
2013-04-12 18:42:00,32.5,9.1,29.92,SE,135,2.0,6.0,37,0.00,,,0.08,meteohub,2013-04-13 00:42:00,
2013-04-12 18:47:00,31.8,8.4,29.93,East,90,2.0,6.0,37,0.00,,,0.08,meteohub,2013-04-13 00:47:00,
2013-04-12 18:52:00,31.1,8.4,29.92,SE,135,1.0,6.0,38,0.00,,,0.08,meteohub,2013-04-13 00:52:00,
2013-04-12 18:57:00,30.7,9.9,29.93,SE,135,4.0,6.0,41,0.00,,,0.08,meteohub,2013-04-13 00:57:00,
2013-04-12 19:02:00,30.2,9.9,29.93,East,90,2.0,4.0,42,0.00,,,0.08,meteohub,2013-04-13 01:02:00,
2013-04-12 19:07:00,29.7,10.4,29.93,SE,135,2.0,6.0,44,0.00,,,0.08,meteohub,2013-04-13 01:07:00,
2013-04-12 19:12:00,29.3,10.0,29.92,East,90,4.0,6.0,44,0.00,,,0.08,meteohub,2013-04-13 01:12:00,
2013-04-12 19:17:00,28.9,9.7,29.93,SW,225,2.0,6.0,44,0.00,,,0.08,meteohub,2013-04-13 01:17:00,
2013-04-12 19:22:00,28.8,10.6,29.93,SE,135,2.0,7.0,46,0.00,,,0.08,meteohub,2013-04-13 01:22:00,
2013-04-12 19:27:00,28.4,10.8,29.93,South,180,0.0,7.0,47,0.00,,,0.08,meteohub,2013-04-13 01:27:00,
2013-04-12 19:32:00,28.0,9.5,29.93,SE,135,2.0,6.0,45,0.00,,,0.08,meteohub,2013-04-13 01:32:00,
2013-04-12 19:37:00,27.5,9.5,29.93,SE,135,1.0,3.0,46,0.00,,,0.08,meteohub,2013-04-13 01:37:00,
2013-04-12 19:43:00,27.3,10.2,29.93,NW,315,0.0,2.0,48,0.00,,,0.08,meteohub,2013-04-13 01:43:00,
2013-04-12 19:48:00,27.0,9.9,29.93,SE,135,0.0,2.0,48,0.00,,,0.08,meteohub,2013-04-13 01:48:00,
2013-04-12 19:53:00,26.6,10.0,29.93,SE,135,2.0,2.0,49,0.00,,,0.08,meteohub,2013-04-13 01:53:00,
2013-04-12 19:58:00,26.2,10.6,29.93,NW,315,0.0,2.0,51,0.00,,,0.08,meteohub,2013-04-13 01:58:00,
2013-04-12 20:03:00,26.1,10.4,29.93,SE,135,2.0,3.0,51,0.00,,,0.08,meteohub,2013-04-13 02:03:00,
2013-04-12 20:08:00,25.7,10.9,29.93,SE,135,2.0,3.0,53,0.00,,,0.08,meteohub,2013-04-13 02:08:00,
2013-04-12 20:14:00,25.5,10.8,29.93,SE,135,0.0,2.0,53,0.00,,,0.08,meteohub,2013-04-13 02:14:00,
2013-04-12 20:19:00,25.3,10.6,29.94,NW,315,2.0,3.0,53,0.00,,,0.08,meteohub,2013-04-13 02:19:00,
2013-04-12 20:24:00,25.2,10.4,29.94,SE,135,0.0,3.0,53,0.00,,,0.08,meteohub,2013-04-13 02:24:00,
2013-04-12 20:29:00,25.0,10.2,29.94,North,0,1.0,3.0,53,0.00,,,0.08,meteohub,2013-04-13 02:29:00,
2013-04-12 20:34:00,24.8,10.0,29.94,SE,135,0.0,2.0,53,0.00,,,0.08,meteohub,2013-04-13 02:34:00,
2013-04-12 20:40:00,24.6,10.8,29.94,SE,135,0.0,2.0,55,0.00,,,0.08,meteohub,2013-04-13 02:40:00,
2013-04-12 20:45:00,24.4,10.6,29.94,SE,135,2.0,2.0,55,0.00,,,0.08,meteohub,2013-04-13 02:45:00,
2013-04-12 20:50:00,24.1,10.2,29.95,West,270,0.0,2.0,55,0.00,,,0.08,meteohub,2013-04-13 02:50:00,
2013-04-12 20:55:00,23.9,10.4,29.94,SE,135,2.0,2.0,56,0.00,,,0.08,meteohub,2013-04-13 02:55:00,
2013-04-12 21:00:00,23.5,9.7,29.94,SE,135,1.0,2.0,55,0.00,,,0.08,meteohub,2013-04-13 03:00:00,
2013-04-12 21:06:00,23.4,9.5,29.95,SE,135,2.0,2.0,55,0.00,,,0.08,meteohub,2013-04-13 03:06:00,
2013-04-12 21:11:00,23.2,9.9,29.94,SE,135,2.0,2.0,56,0.00,,,0.08,meteohub,2013-04-13 03:11:00,
2013-04-12 21:16:00,23.0,9.3,29.95,SE,135,2.0,2.0,55,0.00,,,0.08,meteohub,2013-04-13 03:16:00,
2013-04-12 21:22:00,22.6,9.3,29.95,SE,135,2.0,2.0,56,0.00,,,0.08,meteohub,2013-04-13 03:22:00,
2013-04-12 21:27:00,22.5,9.1,29.95,SE,135,0.0,2.0,56,0.00,,,0.08,meteohub,2013-04-13 03:27:00,
2013-04-12 21:32:00,22.1,8.8,29.95,SE,135,0.0,2.0,56,0.00,,,0.08,meteohub,2013-04-13 03:32:00,
2013-04-12 21:38:00,21.9,8.6,29.95,SE,135,3.0,3.0,56,0.00,,,0.08,meteohub,2013-04-13 03:38:00,
2013-04-12 21:43:00,21.6,8.2,29.95,SE,135,2.0,3.0,56,0.00,,,0.08,meteohub,2013-04-13 03:43:00,
2013-04-12 21:48:00,21.4,8.1,29.95,SE,135,2.0,3.0,56,0.00,,,0.08,meteohub,2013-04-13 03:48:00,
2013-04-12 21:53:00,21.0,8.2,29.95,SE,135,4.0,4.0,57,0.00,,,0.08,meteohub,2013-04-13 03:53:00,
2013-04-12 21:58:00,20.8,8.1,29.95,SE,135,4.0,4.0,57,0.00,,,0.08,meteohub,2013-04-13 03:58:00,
2013-04-12 22:00:00,20.8,8.1,29.95,SE,135,2.0,3.0,57,0.00,,,0.08,meteohub,2013-04-13 04:00:00,
2013-04-12 22:01:00,20.8,8.1,29.95,SE,135,2.0,4.0,57,0.00,,,0.08,meteohub,2013-04-13 04:01:00,
2013-04-12 22:02:00,20.8,8.1,29.95,SE,135,2.0,4.0,57,0.00,,,0.08,meteohub,2013-04-13 04:02:00,
2013-04-12 22:07:00,20.7,7.9,29.95,SE,135,4.0,4.0,57,0.00,,,0.08,meteohub,2013-04-13 04:07:00,
2013-04-12 22:12:00,20.5,7.7,29.95,SE,135,3.0,4.0,57,0.00,,,0.08,meteohub,2013-04-13 04:12:00,
2013-04-12 22:17:00,20.3,7.5,29.94,SE,135,3.0,4.0,57,0.00,,,0.08,meteohub,2013-04-13 04:17:00,
2013-04-12 22:22:00,20.1,7.3,29.95,NW,315,0.0,4.0,57,0.00,,,0.08,meteohub,2013-04-13 04:22:00,
2013-04-12 22:28:00,20.1,7.3,29.95,SE,135,2.0,4.0,57,0.00,,,0.08,meteohub,2013-04-13 04:28:00,
2013-04-12 22:33:00,19.8,7.0,29.95,SE,135,1.0,3.0,57,0.00,,,0.08,meteohub,2013-04-13 04:33:00,
2013-04-12 22:38:00,19.6,6.8,29.95,SE,135,2.0,3.0,57,0.00,,,0.08,meteohub,2013-04-13 04:38:00,
2013-04-12 22:44:00,19.6,6.8,29.95,East,90,1.0,3.0,57,0.00,,,0.08,meteohub,2013-04-13 04:44:00,
2013-04-12 22:49:00,19.4,6.6,29.95,East,90,2.0,2.0,57,0.00,,,0.08,meteohub,2013-04-13 04:49:00,
2013-04-12 22:54:00,19.2,5.4,29.95,WNW,293,3.0,3.0,54,0.00,,,0.08,meteohub,2013-04-13 04:54:00,
2013-04-12 22:59:00,19.2,4.8,29.94,SE,135,1.0,2.0,53,0.00,,,0.08,meteohub,2013-04-13 04:59:00,
2013-04-12 23:04:00,19.2,5.4,29.94,SE,135,1.0,3.0,54,0.00,,,0.08,meteohub,2013-04-13 05:04:00,
2013-04-12 23:10:00,19.0,5.2,29.94,SE,135,2.0,3.0,54,0.00,,,0.08,meteohub,2013-04-13 05:10:00,
2013-04-12 23:15:00,19.0,5.5,29.94,East,90,1.0,2.0,55,0.00,,,0.08,meteohub,2013-04-13 05:15:00,
2013-04-12 23:20:00,19.0,5.5,29.94,SE,135,2.0,4.0,55,0.00,,,0.08,meteohub,2013-04-13 05:20:00,
2013-04-12 23:25:00,18.9,5.4,29.94,West,270,0.0,4.0,55,0.00,,,0.08,meteohub,2013-04-13 05:25:00,
2013-04-12 23:31:00,18.9,5.7,29.94,SE,135,2.0,3.0,56,0.00,,,0.08,meteohub,2013-04-13 05:31:00,
2013-04-12 23:36:00,18.9,5.7,29.94,East,90,2.0,3.0,56,0.00,,,0.08,meteohub,2013-04-13 05:36:00,
2013-04-12 23:42:00,18.9,5.7,29.94,SE,135,2.0,3.0,56,0.00,,,0.08,meteohub,2013-04-13 05:42:00,
2013-04-12 23:47:00,18.9,5.4,29.94,SE,135,4.0,4.0,55,0.00,,,0.08,meteohub,2013-04-13 05:47:00,
2013-04-12 23:53:00,18.9,5.4,29.94,SE,135,0.0,4.0,55,0.00,,,0.08,meteohub,2013-04-13 05:53:00,
2013-04-12 23:58:00,18.9,5.7,29.94,NE,45,1.0,4.0,56,0.00,,,0.08,meteohub,2013-04-13 05:58:00,